#timestamp,LO_Frequency,Hit,StdDev 
1508691615.6,286047001.1,N
1508691635.4,286046999.9,N
1508691655.2,286047000.7,N
1508691675.1,286047000.8,N
1508691676.0,286047000.8,N
1508691695.8,286046998.6,N
1508691715.7,286047001.0,N
1508691735.5,286046999.9,N
1508691755.3,286047000.7,N
1508691775.2,286046998.1,N
1508691795.0,286047001.8,N
1508691795.9,286047001.8,N
1508691815.8,286047002.7,N
1508691835.6,286047002.2,N
1508691855.4,286047002.1,N
1508691875.3,286047002.6,N
1508691895.1,286047002.8,N
1508691915.9,286047001.9,N
1508691935.7,286047002.4,N
1508691955.5,286047001.3,N
1508691975.4,286047001.6,N
1508691995.2,286047001.7,N
1508692015.0,286047002.1,N
1508692015.9,286047002.1,N
1508692035.8,286047000.0,N
1508692055.6,286046999.9,N
1508692075.5,286047002.1,N
1508692095.3,286046999.8,N
1508692115.1,286047001.1,N
1508692135.9,286047002.4,N
1508692155.7,286047000.4,N
1508692175.6,286046999.8,N
1508692195.4,286047001.0,N
1508692215.2,286047000.5,N
1508692235.1,286047001.1,N
1508692236.0,286047001.1,N
1508692255.8,286047002.3,N
1508692275.6,286047001.1,N
1508692295.5,286047000.3,N
1508692315.3,286046999.9,N
1508692335.2,286046999.7,N
1508692355.9,286047002.2,N
1508692375.7,286047001.9,N
1508692395.6,286047004.4,Y
1508692415.4,286047000.2,P
1508692435.2,286047000.6,N
1508692455.1,286047000.2,N
1508692456.0,286047000.2,N
1508692475.8,286046999.9,N
1508692495.7,286047000.9,N
1508692515.5,286047001.0,N
1508692535.3,286047000.2,N
1508692555.2,286047000.0,N
1508692575.0,286046999.9,N
1508692575.9,286046999.9,N
1508692595.8,286047000.5,N
1508692615.6,286046998.5,Y
1508692635.4,286047001.2,P
1508692655.3,286046999.3,N
1508692675.1,286047002.8,P
1508692695.9,286047000.5,N
1508692715.7,286047000.3,N
1508692735.5,286047000.8,N
1508692755.4,286047000.5,N
1508692775.2,286047000.9,N
1508692795.0,286047001.0,N
1508692796.0,286047001.0,N
1508692815.8,286047000.6,N
1508692835.6,286047002.4,Y
1508692855.5,286047000.2,P
1508692875.3,286047000.8,N
1508692895.1,286047000.8,N
1508692915.9,286047001.1,Y
1508692935.7,286046998.3,P
1508692955.6,286046998.6,N
1508692975.4,286046999.3,N
1508692995.2,286047001.2,N
1508693015.1,286046998.2,N
1508693016.0,286046998.2,N
1508693035.8,286046996.7,N
1508693055.7,286046997.2,N
1508693075.5,286046997.8,N
1508693095.3,286046999.2,N
1508693115.2,286046996.6,N
1508693135.0,286046999.4,N
1508693135.9,286046999.4,N
1508693155.8,286046999.4,N
1508693175.6,286046999.2,N
1508693195.4,286046996.9,N
1508693215.3,286046996.5,N
1508693235.1,286046997.4,N
1508693255.8,286046995.3,Y
1508693275.7,286046999.5,P
1508693295.5,286046999.6,N
1508693315.4,286046996.6,P
1508693335.2,286046996.7,N
1508693355.0,286046999.3,N
1508693355.9,286046999.3,N
1508693375.8,286046997.3,N
1508693395.6,286046994.9,Y
1508693415.4,286046999.6,P
1508693435.3,286046996.6,P
1508693455.1,286046999.2,N
1508693475.9,286046998.4,N
1508693495.7,286046998.1,N
1508693515.5,286047000.7,N
1508693535.4,286047000.3,N
1508693555.2,286047000.3,N
1508693575.0,286047000.0,N
1508693575.9,286047000.0,N
1508693595.8,286046998.1,N
1508693615.6,286046999.4,N
1508693635.5,286046996.8,N
1508693655.3,286046996.5,N
1508693675.1,286046999.6,N
1508693695.9,286046996.6,N
1508693715.7,286046996.9,N
1508693735.5,286046997.8,N
1508693755.4,286046997.5,N
1508693775.2,286046999.0,N
1508693795.1,286046997.0,N
1508693796.0,286046997.0,N
1508693815.8,286046997.4,N
1508693835.7,286046995.1,Y
1508693855.5,286046998.0,P
1508693875.3,286046997.6,P
1508693895.2,286046997.8,P
1508693915.9,286046997.2,Y
1508693935.7,286047000.0,P
1508693955.6,286047002.2,N
1508693975.4,286047002.0,N
1508693995.3,286047002.2,N
1508694015.1,286047000.1,N
1508694016.0,286047000.1,N
1508694035.8,286047000.1,N
1508694055.7,286047000.2,N
1508694075.5,286046999.7,N
1508694095.3,286047000.8,N
1508694115.2,286047000.0,N
1508694135.0,286047000.3,N
1508694135.9,286047000.3,N
1508694155.8,286047000.7,N
1508694175.6,286047001.0,N
1508694195.4,286046998.7,N
1508694215.3,286046996.9,N
1508694235.1,286046997.0,N
1508694255.8,286046996.7,N
1508694275.7,286046996.5,N
1508694295.5,286046999.5,N
1508694315.4,286046999.1,N
1508694335.2,286046998.9,N
1508694355.0,286046999.4,N
1508694355.9,286046999.4,N
1508694375.8,286046996.7,N
1508694395.6,286046999.3,N
1508694415.5,286046996.5,N
1508694435.3,286046996.6,N
1508694455.1,286046999.1,N
1508694475.9,286046999.4,N
1508694495.7,286046999.0,N
1508694515.6,286046996.5,N
1508694535.4,286046996.9,N
1508694555.2,286046996.9,N
1508694575.1,286046995.3,Y
1508694576.0,286046995.3,P
1508694595.8,286046996.7,N
1508694615.7,286046996.7,N
1508694635.5,286046997.1,N
1508694655.3,286046996.5,Y
1508694675.2,286047000.5,P
1508694695.0,286047002.2,N
1508694695.9,286047002.2,N
1508694715.8,286047002.4,N
1508694735.6,286047002.0,N
1508694755.4,286047002.8,N
1508694775.3,286047002.2,N
1508694795.1,286047002.0,N
1508694815.8,286047001.5,N
1508694835.7,286047001.6,N
1508694855.5,286047003.6,N
1508694875.4,286047005.7,Y
1508694895.2,286047001.8,P
1508694915.0,286047003.8,P
1508694915.9,286047003.8,P
1508694935.8,286047004.4,Y
1508694955.6,286046999.0,P
1508694975.5,286046999.3,N
1508694995.3,286046999.0,N
1508695015.1,286046999.1,N
1508695035.9,286046997.1,N
1508695055.7,286046996.5,N
1508695075.6,286046996.9,N
1508695095.4,286046999.3,N
1508695115.2,286046998.8,N
1508695135.1,286046998.5,N
1508695136.0,286046998.5,N
1508695155.8,286046999.4,N
1508695175.6,286046999.3,N
1508695195.5,286046998.9,N
